Flag for U.S.A. Weather past 2 weeks in San Francisco, California, U.S.A.

Now
59 °F

Broken clouds.


Feels Like: 57 °F
Forecast: 52 / 68 °F
Wind: 13 mph from West

Location: San Francisco International Airport


UV Index: 5 (Moderate)

Visibility: 10 mi


Pressure: 30.11 "Hg

Humidity: 81%

Dew point: 53 °F

Location of San FranciscoLocation

Historic Weather in San Francisco

°F

San Francisco temperature yesterday

Maximum temperature yesterday: 62 °F (at 4:56 PM)
Minimum temperature yesterday: 53 °F (at 2:56 AM)
Average temperature yesterday: 57 °F

Past Weeks' High & Low Weather Summary

 TemperatureHumidityPressure
High81 °F (Apr 7, 4:56 PM)96% (Apr 10, 2:56 AM)30.24 "Hg (Apr 10, 2:56 AM)
Low50 °F (Apr 5, 5:56 AM)38% (Apr 7, 4:56 PM)29.80 "Hg (Apr 17, 5:56 AM)
Average58 °F75%30.01 "Hg
* Reported Apr 4 5:56 PM — Apr 19 5:56 PM, San Francisco, Weather by CustomWeather, © 2014

Note: Actual official high and low records may vary slightly from our data, if they occured in-between our weather recording intervals... More about our weather records

Advertising

Historic Weather Conditions — Data for Previous 24 hours

 ConditionsComfort  
Time TempWeatherWind HumidityBarometerVisibility
5:56 PM
Apr 19
59 °FBroken clouds.13 mph81%30.11 "Hg10 mi
4:56 PM63 °FScattered clouds.18 mph70%30.10 "Hg10 mi
3:56 PM63 °FPartly sunny.16 mph70%30.12 "Hg10 mi
2:56 PM63 °FScattered clouds.20 mph68%30.12 "Hg10 mi
1:56 PM62 °FPassing clouds.17 mph65%30.12 "Hg10 mi
12:56 PM63 °FPassing clouds.16 mph60%30.11 "Hg10 mi
11:56 AM62 °FPassing clouds.16 mph56%30.11 "Hg10 mi
10:56 AM60 °FPassing clouds.12 mph62%30.09 "Hg10 mi
9:56 AM58 °FScattered clouds.15 mph67%30.09 "Hg10 mi
8:56 AM56 °FPassing clouds.15 mph72%30.07 "Hg10 mi
7:56 AM54 °FPassing clouds.8 mph77%30.04 "Hg10 mi
6:56 AM53 °FPartly cloudy.10 mph80%30.03 "Hg10 mi
5:56 AM53 °FPassing clouds.9 mph80%30.01 "Hg10 mi
4:56 AM53 °FPassing clouds.12 mph80%30.00 "Hg10 mi
3:56 AM53 °FOvercast.8 mph80%29.99 "Hg10 mi
2:56 AM53 °FOvercast.10 mph77%29.98 "Hg10 mi
1:56 AM52 °FPassing clouds.6 mph80%29.98 "Hg10 mi
12:56 AM52 °FClear.5 mph77%29.96 "Hg10 mi
11:56 PM
Apr 18
54 °FClear.9 mph72%29.96 "Hg10 mi
10:56 PM54 °FClear.10 mph74%29.96 "Hg10 mi
9:56 PM55 °FPassing clouds.10 mph72%29.96 "Hg10 mi
8:56 PM56 °FPassing clouds.6 mph67%29.94 "Hg10 mi
7:56 PM56 °FScattered clouds.9 mph67%29.92 "Hg10 mi
6:56 PM58 °FScattered clouds.13 mph65%29.90 "Hg10 mi
Weather by CustomWeather, © 2014

See weather overview